User: anonymous   Login
Location: Fort Wayne
(41.1310°N, 85.1290°W)
Time: 15:36:31
(UTC-05:00)
Language:

Cosmos 1953 - Orbit

View from above orbital plane
View from above orbital plane
View from above satellite
View from above satellite

Ground track
Ground track

The orbit data is extracted from the following two-line orbital elements,

1 19210U 88050A   16036.75752982 +.00001259 +00000-0 +87677-4 0  9991
2 19210 082.5202 155.4122 0014515 152.2147 207.9858 15.04515394481898
Epoch (UTC): 05 February 2016 18:10:50
Eccentricity: 0.0014515
inclination: 82.5202°
perigee height: 543 km
apogee height: 563 km
right ascension of ascending node: 155.4122°
argument of perigee: 152.2147°
revolutions per day: 15.04515394
mean anomaly at epoch: 207.9858°
orbit number at epoch: 48189

The dashed part of the orbit path shows where the satellite is in the earth's shadow,  

DLR